World > North America > United States > Illinois

Barrington, Illinois Regional Weather

Lat: 42.15N, Lon: 88.13W
Wx Zone: ILZ006
Warning NWS WEATHER ALERT - (More Info. Click Here) Warning
Feedback

Barrington, IL Regional Weather

Expires:201909171700;;930817
ASUS43 KLOT 171609
RWRIL 

ILLINOIS REGIONAL WEATHER ROUNDUP
NATIONAL WEATHER SERVICE CHICAGO/ROMEOVILLE IL
1100 AM CDT TUE SEP 17 2019

NOTE: "FAIR" INDICATES FEW OR NO CLOUDS BELOW 12,000 FEET WITH NO
SIGNIFICANT WEATHER AND/OR OBSTRUCTIONS TO VISIBILITY.

* THESE STATIONS ARE NOT UNDER NWS QUALITY CONTROL. THEY ALSO MAY NOT
  REPORT WEATHER SUCH AS PRECIPITATION OR FOG.


ILZ005-006-012>014-019>023-171700-
NORTHEAST ILLINOIS
  
CITY           SKY/WX    TMP DP  RH WIND       PRES   REMARKS
CHICAGO-OHARE  PTSUNNY   72  64  76 E3        30.19S                  
CHICAGO-MIDWAY CLOUDY    73  66  78 E6        30.19S                  
AURORA         FAIR      75  65  70 SE9       30.18F                  
LANSING*       CLOUDY    71  67  86 CALM      30.19S                  
JOLIET*        FAIR      74  70  86 E6        30.19S FOG              
WAUKEGAN       CLOUDY    68  63  84 VRB3      30.20S                  
DUPAGE AIRPORT FAIR      76  63  64 SE7       30.18F                  
KANKAKEE*      PTSUNNY   73  66  80 E3        30.19F                  
WHEELING       FAIR      71  63  75 E7        30.21S                  
MORRIS*        FAIR      71  67  88 SE3       30.18S FOG              
ROMEOVILLE*    FAIR      73  66  78 SE5       30.19S                  
NORTHERLY ISL    N/A     69  65  86 NE5         N/A                   
$$


SKY/WX - Weather  TMP - Temperature  DP - Dew Point  RH - Relative Humidity
WIND - Wind Direction/Speed PRES - Barometric Pressure VSB - Visibility
WCI - Wind Chill Index E13G22 Wind - East Wind 13 mph/Gusts of 22 mph